Location: *
(37.5724°S, 58.0067°E)
Time: 11:44:47
(UTC+00:00)

SL-16 R/B - Pass Details

Date: 26 September 2020
Orbit: 842 x 847 km, 71.0° (Epoch: 29 October)

Event Time Altitude Azimuth Distance (km) Brightness Sun altitude
Rises 14:26:25 0° 340° (NNW) 3,388 5.5 -4.4°
Reaches altitude 10° 14:28:51 10° 339° (NNW) 2,461 4.8 -4.9°
Maximum altitude 14:34:31 89° 259° (W) 856 2.3 -6.0°
Drops below altitude 10° 14:40:16 10° 158° (SSE) 2,492 4.5 -7.2°
Sets 14:42:44 0° 157° (SSE) 3,434 5.2 -7.6°
